TimeMDT,TemperatureF,Dew PointF,Humidity,Sea Level PressureIn,VisibilityMPH,Wind Direction,Wind SpeedMPH,Gust SpeedMPH,PrecipitationIn,Events,Conditions,WindDirDegrees,DateUTC
12:53 AM,60.1,37.9,44,29.98,10.0,West,8.1,-,N/A,,Mostly Cloudy,260,2012-09-30 06:53:00
1:53 AM,60.1,37.0,42,30.00,10.0,Variable,3.5,-,N/A,,Clear,0,2012-09-30 07:53:00
2:53 AM,53.1,36.0,52,30.00,10.0,Calm,Calm,-,N/A,,Clear,0,2012-09-30 08:53:00
3:53 AM,57.9,37.0,46,29.99,10.0,Calm,Calm,-,N/A,,Clear,0,2012-09-30 09:53:00
4:53 AM,54.0,37.0,53,30.01,10.0,West,5.8,-,N/A,,Mostly Cloudy,280,2012-09-30 10:53:00
5:53 AM,57.0,37.9,49,30.02,10.0,WSW,6.9,-,N/A,,Partly Cloudy,240,2012-09-30 11:53:00
6:53 AM,55.0,37.9,53,30.04,10.0,Calm,Calm,-,N/A,,Clear,0,2012-09-30 12:53:00
7:53 AM,57.0,37.9,49,30.06,10.0,SSW,3.5,-,N/A,,Clear,200,2012-09-30 13:53:00
8:53 AM,63.0,37.9,40,30.06,10.0,West,11.5,-,N/A,,Clear,260,2012-09-30 14:53:00
9:53 AM,68.0,37.9,33,30.05,10.0,WNW,11.5,-,N/A,,Clear,300,2012-09-30 15:53:00
10:53 AM,72.0,37.9,29,30.04,10.0,NW,10.4,-,N/A,,Clear,320,2012-09-30 16:53:00
11:53 AM,73.9,37.0,26,30.04,10.0,NW,13.8,21.9,N/A,,Clear,320,2012-09-30 17:53:00
12:53 PM,75.0,36.0,24,30.01,10.0,NW,13.8,20.7,N/A,,Clear,310,2012-09-30 18:53:00
1:53 PM,75.0,36.0,24,30.00,10.0,NNW,18.4,-,N/A,,Partly Cloudy,340,2012-09-30 19:53:00
2:53 PM,73.0,35.1,25,30.03,10.0,NW,18.4,23.0,N/A,,Mostly Cloudy,320,2012-09-30 20:53:00
3:53 PM,75.0,36.0,24,30.01,10.0,NW,23.0,27.6,N/A,,Scattered Clouds,310,2012-09-30 21:53:00
4:53 PM,71.1,36.0,28,30.04,10.0,NW,18.4,33.4,N/A,,Overcast,320,2012-09-30 22:53:00
5:53 PM,69.1,32.0,25,30.05,10.0,NNW,17.3,-,N/A,,Overcast,340,2012-09-30 23:53:00
6:53 PM,62.1,32.0,32,30.09,10.0,NNW,8.1,-,N/A,,Partly Cloudy,340,2012-10-01 00:53:00
7:53 PM,57.9,33.1,39,30.12,10.0,NNW,8.1,-,N/A,,Partly Cloudy,340,2012-10-01 01:53:00
8:53 PM,57.0,34.0,42,30.13,10.0,NNW,9.2,-,N/A,,Partly Cloudy,330,2012-10-01 02:53:00
9:53 PM,55.0,33.1,43,30.15,10.0,NNW,11.5,-,N/A,,Clear,340,2012-10-01 03:53:00
10:53 PM,53.1,33.1,47,30.17,10.0,North,8.1,-,N/A,,Clear,10,2012-10-01 04:53:00
11:53 PM,55.9,35.1,45,30.17,10.0,NW,8.1,-,N/A,,Overcast,320,2012-10-01 05:53:00